QPF
0.06 0.07 0.08 0.08 0.10 0.11 0.12 0.13 0.13 0.11 0.09 0.07 0.05 0.05 0.05 0.05 0.05 0.05 0.04 0.04 0.04 0.04 0.04 0.05 0.05 0.05 0.04 0.04 0.04 0.04 0.05 0.05 0.05 0.05 0.06 0.07 0.06 0.06
0.05 0.06 0.07 0.07 0.08 0.09 0.10 0.10 0.10 0.10 0.08 0.04 0.03 0.04 0.05 0.05 0.05 0.05 0.04 0.04 0.04 0.04 0.04 0.04 0.05 0.04 0.04 0.03 0.04 0.04 0.04 0.04 0.04 0.05 0.07 0.08 0.07 0.06
0.08 0.08 0.08 0.08 0.09 0.09 0.10 0.11 0.11 0.11 0.09 0.05 0.04 0.04 0.05 0.06 0.06 0.06 0.06 0.05 0.05 0.05 0.04 0.05 0.05 0.05 0.04 0.04 0.04 0.04 0.04 0.03 0.03 0.03 0.05 0.06 0.06 0.05
0.07 0.08 0.09 0.09 0.08 0.09 0.10 0.11 0.11 0.11 0.11 0.08 0.06 0.06 0.07 0.07 0.08 0.09 0.08 0.07 0.06 0.05 0.05 0.05 0.05 0.05 0.05 0.04 0.04 0.04 0.04 0.04 0.04 0.03 0.03 0.03 0.04 0.04
0.05 0.05 0.05 0.06 0.06 0.06 0.07 0.08 0.10 0.13 0.14 0.13 0.09 0.07 0.06 0.07 0.09 0.10 0.10 0.09 0.07 0.06 0.06 0.07 0.07 0.07 0.06 0.06 0.05 0.04 0.04 0.04 0.04 0.03 0.03 0.03 0.03 0.03
0.03 0.03 0.04 0.04 0.05 0.05 0.05 0.05 0.07 0.09 0.11 0.13 0.12 0.10 0.09 0.08 0.09 0.10 0.10 0.08 0.07 0.07 0.08 0.08 0.08 0.09 0.08 0.07 0.06 0.05 0.05 0.05 0.05 0.04 0.04 0.03 0.03 0.03
0.02 0.02 0.03 0.04 0.05 0.05 0.06 0.06 0.07 0.08 0.09 0.10 0.11 0.11 0.10 0.10 0.11 0.10 0.10 0.08 0.08 0.08 0.09 0.09 0.09 0.09 0.09 0.08 0.07 0.06 0.05 0.05 0.05 0.05 0.04 0.03 0.03 0.03
0.02 0.02 0.03 0.04 0.04 0.05 0.05 0.06 0.06 0.08 0.09 0.09 0.09 0.09 0.08 0.08 0.08 0.09 0.10 0.12 0.12 0.09 0.09 0.09 0.09 0.09 0.09 0.08 0.09 0.08 0.07 0.06 0.05 0.05 0.05 0.04 0.04 0.03
0.03 0.03 0.04 0.04 0.05 0.04 0.05 0.05 0.06 0.07 0.08 0.08 0.09 0.08 0.07 0.07 0.08 0.10 0.11 0.11 0.09 0.07 0.09 0.11 0.10 0.09 0.07 0.08 0.11 0.10 0.08 0.07 0.07 0.06 0.06 0.05 0.05 0.04
0.02 0.03 0.03 0.03 0.03 0.04 0.04 0.04 0.05 0.06 0.07 0.07 0.07 0.08 0.07 0.07 0.07 0.09 0.10 0.12 0.13 0.13 0.13 0.15 0.12 0.10 0.08 0.08 0.10 0.10 0.10 0.10 0.10 0.09 0.08 0.07 0.07 0.06
0.01 0.01 0.02 0.02 0.02 0.03 0.03 0.03 0.04 0.04 0.05 0.06 0.07 0.07 0.09 0.11 0.12 0.13 0.15 0.18 0.18 0.15 0.13 0.13 0.11 0.09 0.09 0.10 0.10 0.12 0.12 0.12 0.13 0.12 0.11 0.10 0.09 0.08
0.01 0.01 0.01 0.01 0.01 0.02 0.02 0.02 0.02 0.03 0.03 0.04 0.05 0.05 0.06 0.07 0.11 0.11 0.13 0.16 0.15 0.12 0.08 0.10 0.11 0.12 0.14 0.12 0.10 0.11 0.14 0.16 0.15 0.14 0.13 0.11 0.10 0.09
0.00 0.00 0.00 0.00 0.01 0.01 0.01 0.02 0.02 0.02 0.03 0.03 0.04 0.04 0.05 0.06 0.08 0.09 0.10 0.11 0.13 0.11 0.08 0.09 0.12 0.14 0.15 0.13 0.11 0.10 0.12 0.14 0.16 0.15 0.15 0.14 0.12 0.10
0.01 0.00 0.00 0.01 0.01 0.01 0.01 0.01 0.02 0.02 0.02 0.02 0.03 0.04 0.04 0.05 0.06 0.07 0.08 0.09 0.09 0.08 0.07 0.10 0.13 0.13 0.14 0.15 0.13 0.11 0.12 0.13 0.15 0.14 0.13 0.15 0.14 0.11
0.01 0.01 0.01 0.01 0.01 0.01 0.01 0.02 0.02 0.02 0.02 0.02 0.02 0.02 0.02 0.03 0.05 0.06 0.07 0.08 0.10 0.09 0.09 0.10 0.11 0.12 0.14 0.15 0.14 0.12 0.12 0.13 0.14 0.14 0.15 0.14 0.13 0.12
0.00 0.00 0.01 0.01 0.01 0.01 0.02 0.02 0.02 0.03 0.03 0.04 0.04 0.03 0.03 0.03 0.03 0.04 0.06 0.07 0.09 0.09 0.09 0.10 0.11 0.14 0.16 0.14 0.13 0.12 0.12 0.12 0.12 0.13 0.14 0.15 0.13 0.11
0.01 0.01 0.00 0.00 0.01 0.01 0.01 0.02 0.02 0.03 0.03 0.03 0.04 0.04 0.04 0.04 0.04 0.05 0.05 0.07 0.08 0.08 0.08 0.09 0.11 0.14 0.16 0.16 0.15 0.13 0.13 0.13 0.12 0.14 0.15 0.16 0.15 0.12
0.01 0.01 0.01 0.01 0.01 0.01 0.02 0.02 0.02 0.03 0.03 0.03 0.04 0.04 0.04 0.04 0.04 0.05 0.06 0.07 0.07 0.07 0.07 0.08 0.10 0.14 0.16 0.17 0.15 0.13 0.13 0.13 0.12 0.13 0.14 0.15 0.14 0.11
0.01 0.01 0.01 0.01 0.01 0.01 0.02 0.02 0.02 0.03 0.03 0.04 0.04 0.04 0.04 0.04 0.05 0.05 0.06 0.07 0.08 0.08 0.08 0.09 0.10 0.12 0.14 0.13 0.12 0.10 0.11 0.12 0.12 0.14 0.15 0.13 0.12 0.10
0.00 0.01 0.01 0.01 0.01 0.01 0.02 0.02 0.02 0.02 0.02 0.03 0.04 0.04 0.04 0.05 0.05 0.06 0.06 0.07 0.09 0.09 0.09 0.10 0.10 0.11 0.11 0.10 0.10 0.10 0.10 0.11 0.12 0.13 0.13 0.13 0.13 0.13
0.00 0.01 0.01 0.01 0.01 0.02 0.02 0.02 0.02 0.02 0.03 0.03 0.04 0.04 0.04 0.05 0.06 0.06 0.06 0.07 0.08 0.09 0.10 0.10 0.10 0.10 0.11 0.12 0.12 0.12 0.13 0.13 0.13 0.12 0.12 0.12 0.13 0.14
0.01 0.01 0.01 0.01 0.01 0.01 0.02 0.02 0.02 0.02 0.03 0.03 0.04 0.04 0.04 0.05 0.06 0.06 0.06 0.07 0.07 0.07 0.08 0.10 0.11 0.11 0.12 0.13 0.13 0.12 0.13 0.15 0.16 0.16 0.14 0.11 0.10 0.09
0.01 0.01 0.01 0.01 0.01 0.02 0.02 0.02 0.02 0.02 0.02 0.03 0.04 0.04 0.04 0.05 0.05 0.06 0.06 0.07 0.07 0.08 0.09 0.10 0.11 0.12 0.13 0.13 0.13 0.12 0.12 0.12 0.13 0.14 0.14 0.11 0.08 0.07
MSLP
1014.11 1013.86 1013.60 1013.31 1012.94 1012.49 1011.95 1011.35 1010.70 1010.04 1009.39 1008.79 1008.25 1007.77 1007.34 1006.96 1006.60 1006.26 1005.93 1005.62 1005.35 1005.13 1004.99 1004.94 1005.00 1005.16 1005.43 1005.79 1006.22 1006.71 1007.24 1007.80 1008.37 1008.94 1009.53 1010.12 1010.71 1011.29
1014.88 1014.61 1014.34 1014.01 1013.63 1013.16 1012.63 1012.03 1011.40 1010.75 1010.11 1009.50 1008.91 1008.36 1007.82 1007.29 1006.75 1006.21 1005.68 1005.17 1004.71 1004.34 1004.07 1003.93 1003.93 1004.08 1004.35 1004.73 1005.20 1005.73 1006.29 1006.87 1007.46 1008.04 1008.63 1009.23 1009.82 1010.42
1015.49 1015.23 1014.94 1014.61 1014.23 1013.77 1013.26 1012.70 1012.11 1011.51 1010.90 1010.31 1009.72 1009.12 1008.50 1007.86 1007.17 1006.47 1005.75 1005.04 1004.40 1003.86 1003.45 1003.20 1003.12 1003.20 1003.44 1003.81 1004.27 1004.80 1005.37 1005.95 1006.55 1007.14 1007.74 1008.34 1008.94 1009.55
1015.91 1015.65 1015.37 1015.05 1014.68 1014.25 1013.77 1013.26 1012.73 1012.19 1011.65 1011.10 1010.53 1009.93 1009.28 1008.57 1007.79 1006.95 1006.08 1005.23 1004.42 1003.72 1003.16 1002.77 1002.57 1002.56 1002.71 1003.02 1003.43 1003.92 1004.46 1005.03 1005.61 1006.20 1006.80 1007.41 1008.03 1008.66
1016.12 1015.88 1015.61 1015.30 1014.94 1014.54 1014.11 1013.65 1013.18 1012.71 1012.23 1011.75 1011.24 1010.67 1010.03 1009.30 1008.48 1007.57 1006.62 1005.65 1004.72 1003.88 1003.18 1002.64 1002.30 1002.15 1002.18 1002.37 1002.68 1003.08 1003.56 1004.08 1004.63 1005.20 1005.80 1006.42 1007.06 1007.72
1016.16 1015.93 1015.67 1015.37 1015.03 1014.65 1014.24 1013.83 1013.41 1013.00 1012.60 1012.18 1011.74 1011.23 1010.64 1009.95 1009.14 1008.23 1007.25 1006.22 1005.21 1004.27 1003.44 1002.76 1002.27 1001.95 1001.82 1001.85 1002.03 1002.31 1002.67 1003.11 1003.60 1004.14 1004.73 1005.36 1006.03 1006.73
1016.08 1015.84 1015.58 1015.28 1014.95 1014.58 1014.19 1013.80 1013.42 1013.05 1012.70 1012.35 1011.98 1011.55 1011.04 1010.43 1009.69 1008.83 1007.87 1006.85 1005.80 1004.80 1003.87 1003.07 1002.42 1001.94 1001.63 1001.48 1001.48 1001.61 1001.84 1002.17 1002.58 1003.07 1003.63 1004.27 1004.96 1005.70
1015.91 1015.66 1015.40 1015.09 1014.75 1014.38 1013.99 1013.60 1013.22 1012.88 1012.56 1012.26 1011.96 1011.61 1011.20 1010.68 1010.04 1009.27 1008.39 1007.42 1006.39 1005.36 1004.38 1003.48 1002.71 1002.07 1001.58 1001.25 1001.07 1001.03 1001.11 1001.31 1001.63 1002.06 1002.59 1003.21 1003.92 1004.70
1015.69 1015.43 1015.15 1014.84 1014.48 1014.08 1013.67 1013.26 1012.87 1012.52 1012.22 1011.95 1011.69 1011.42 1011.10 1010.69 1010.17 1009.51 1008.74 1007.85 1006.89 1005.88 1004.88 1003.93 1003.05 1002.29 1001.65 1001.16 1000.81 1000.60 1000.54 1000.61 1000.83 1001.18 1001.67 1002.28 1002.99 1003.79
1015.45 1015.18 1014.88 1014.54 1014.16 1013.74 1013.29 1012.85 1012.43 1012.05 1011.74 1011.47 1011.25 1011.03 1010.78 1010.47 1010.06 1009.53 1008.88 1008.10 1007.21 1006.26 1005.28 1004.31 1003.39 1002.54 1001.80 1001.18 1000.69 1000.35 1000.16 1000.12 1000.24 1000.52 1000.96 1001.54 1002.25 1003.07
1015.20 1014.91 1014.59 1014.23 1013.83 1013.37 1012.89 1012.41 1011.95 1011.54 1011.19 1010.92 1010.70 1010.51 1010.32 1010.08 1009.77 1009.34 1008.80 1008.12 1007.33 1006.46 1005.53 1004.58 1003.65 1002.77 1001.97 1001.27 1000.70 1000.26 999.97 999.85 999.89 1000.11 1000.49 1001.04 1001.73 1002.54
1014.92 1014.62 1014.28 1013.91 1013.48 1013.00 1012.49 1011.97 1011.48 1011.03 1010.66 1010.35 1010.13 1009.94 1009.78 1009.58 1009.33 1008.98 1008.52 1007.93 1007.23 1006.44 1005.57 1004.67 1003.77 1002.90 1002.09 1001.36 1000.75 1000.26 999.92 999.74 999.73 999.89 1000.24 1000.75 1001.42 1002.21
1014.61 1014.30 1013.96 1013.57 1013.14 1012.64 1012.11 1011.57 1011.05 1010.57 1010.16 1009.84 1009.58 1009.39 1009.22 1009.03 1008.80 1008.49 1008.08 1007.55 1006.92 1006.19 1005.39 1004.55 1003.70 1002.87 1002.09 1001.38 1000.77 1000.28 999.92 999.72 999.68 999.81 1000.12 1000.60 1001.23 1002.00
1014.27 1013.95 1013.61 1013.22 1012.78 1012.29 1011.75 1011.20 1010.67 1010.17 1009.75 1009.39 1009.11 1008.89 1008.69 1008.48 1008.24 1007.92 1007.52 1007.01 1006.41 1005.72 1004.97 1004.19 1003.40 1002.63 1001.91 1001.25 1000.68 1000.21 999.87 999.67 999.62 999.74 1000.03 1000.48 1001.09 1001.83
1013.90 1013.58 1013.24 1012.86 1012.42 1011.93 1011.41 1010.87 1010.34 1009.84 1009.41 1009.04 1008.73 1008.47 1008.22 1007.97 1007.68 1007.32 1006.88 1006.35 1005.75 1005.07 1004.35 1003.61 1002.87 1002.16 1001.50 1000.91 1000.39 999.98 999.68 999.50 999.47 999.58 999.86 1000.30 1000.88 1001.59
1013.53 1013.21 1012.87 1012.48 1012.05 1011.58 1011.07 1010.55 1010.03 1009.55 1009.12 1008.75 1008.42 1008.11 1007.82 1007.50 1007.14 1006.71 1006.21 1005.63 1004.98 1004.28 1003.56 1002.84 1002.14 1001.48 1000.88 1000.35 999.90 999.54 999.29 999.15 999.14 999.26 999.53 999.96 1000.53 1001.22
1013.17 1012.84 1012.49 1012.11 1011.68 1011.21 1010.72 1010.22 1009.73 1009.28 1008.86 1008.48 1008.14 1007.80 1007.45 1007.07 1006.62 1006.10 1005.51 1004.85 1004.14 1003.40 1002.65 1001.93 1001.24 1000.62 1000.07 999.59 999.20 998.90 998.70 998.60 998.61 998.75 999.03 999.46 1000.01 1000.69
1012.84 1012.50 1012.13 1011.72 1011.28 1010.82 1010.33 1009.85 1009.39 1008.96 1008.57 1008.20 1007.84 1007.48 1007.08 1006.63 1006.10 1005.49 1004.81 1004.07 1003.27 1002.47 1001.69 1000.94 1000.26 999.66 999.14 998.71 998.37 998.12 997.96 997.90 997.94 998.10 998.39 998.81 999.37 1000.04
1012.56 1012.18 1011.77 1011.33 1010.86 1010.38 1009.89 1009.42 1008.97 1008.57 1008.19 1007.83 1007.47 1007.09 1006.65 1006.14 1005.55 1004.86 1004.09 1003.27 1002.40 1001.54 1000.72 999.95 999.27 998.68 998.19 997.80 997.51 997.30 997.18 997.15 997.22 997.40 997.69 998.12 998.67 999.34
1012.31 1011.88 1011.41 1010.91 1010.39 1009.87 1009.36 1008.88 1008.44 1008.04 1007.68 1007.33 1006.97 1006.58 1006.11 1005.57 1004.92 1004.17 1003.34 1002.46 1001.54 1000.64 999.78 999.01 998.33 997.76 997.30 996.95 996.69 996.53 996.45 996.45 996.54 996.74 997.04 997.47 998.02 998.69
1012.08 1011.58 1011.03 1010.46 1009.87 1009.28 1008.73 1008.22 1007.76 1007.36 1007.00 1006.66 1006.31 1005.91 1005.43 1004.87 1004.19 1003.41 1002.55 1001.63 1000.69 999.77 998.91 998.15 997.49 996.95 996.53 996.22 996.01 995.89 995.85 995.88 996.00 996.21 996.52 996.95 997.50 998.17
1011.85 1011.26 1010.62 1009.95 1009.26 1008.60 1007.99 1007.43 1006.95 1006.53 1006.16 1005.82 1005.47 1005.07 1004.60 1004.03 1003.35 1002.57 1001.70 1000.79 999.86 998.96 998.13 997.39 996.78 996.29 995.92 995.67 995.51 995.44 995.44 995.51 995.65 995.87 996.19 996.61 997.15 997.81
1011.59 1010.90 1010.15 1009.37 1008.59 1007.84 1007.15 1006.54 1006.01 1005.57 1005.19 1004.84 1004.49 1004.10 1003.63 1003.08 1002.42 1001.66 1000.82 999.95 999.06 998.21 997.44 996.77 996.22 995.80 995.50 995.31 995.21 995.19 995.24 995.34 995.50 995.73 996.05 996.47 996.99 997.63
Thickness
5534 5537 5540 5542 5545 5547 5549 5551 5555 5563 5572 5577 5578 5580 5580 5581 5583 5584 5587 5589 5590 5591 5593 5594 5594 5595 5595 5595 5594 5594 5593 5592 5591 5589 5587 5586 5586 5586
5521 5524 5526 5529 5532 5535 5537 5539 5541 5545 5554 5563 5564 5565 5567 5569 5571 5573 5576 5578 5580 5582 5583 5585 5585 5586 5587 5587 5586 5586 5585 5585 5584 5583 5582 5581 5580 5580
5507 5509 5512 5515 5518 5521 5523 5526 5528 5531 5537 5546 5548 5550 5552 5555 5558 5561 5564 5566 5569 5571 5573 5575 5576 5577 5578 5578 5578 5578 5578 5578 5578 5577 5576 5575 5575 5574
5493 5495 5498 5501 5503 5506 5509 5512 5514 5517 5521 5528 5532 5534 5537 5540 5544 5547 5550 5554 5557 5560 5562 5564 5566 5567 5568 5569 5569 5570 5570 5570 5571 5571 5570 5569 5569 5568
5479 5481 5483 5485 5488 5490 5493 5496 5499 5503 5505 5509 5516 5518 5521 5524 5527 5531 5535 5539 5543 5546 5549 5552 5555 5556 5558 5559 5560 5561 5562 5562 5563 5563 5564 5562 5561 5561
5465 5466 5467 5469 5471 5474 5477 5479 5482 5485 5488 5493 5498 5502 5504 5507 5509 5514 5519 5523 5528 5531 5535 5539 5542 5544 5546 5549 5551 5552 5553 5554 5554 5554 5555 5555 5554 5553
5451 5452 5453 5454 5456 5458 5461 5463 5465 5468 5471 5474 5480 5485 5488 5489 5492 5497 5502 5507 5512 5516 5519 5524 5528 5532 5534 5537 5539 5541 5543 5545 5545 5546 5547 5547 5546 5545
5437 5437 5438 5440 5441 5443 5445 5447 5448 5450 5453 5456 5461 5465 5470 5472 5475 5479 5483 5488 5496 5501 5501 5509 5510 5516 5521 5524 5528 5530 5532 5534 5535 5536 5538 5538 5538 5537
5422 5422 5423 5424 5425 5426 5428 5431 5431 5433 5435 5437 5441 5446 5450 5454 5457 5462 5465 5470 5478 5483 5482 5492 5495 5500 5506 5510 5514 5517 5520 5523 5525 5526 5527 5528 5529 5528
5408 5407 5408 5409 5410 5411 5413 5415 5416 5417 5419 5421 5424 5428 5431 5435 5438 5443 5447 5453 5460 5463 5465 5473 5480 5484 5490 5495 5499 5504 5507 5511 5513 5515 5516 5518 5519 5519
5395 5394 5394 5395 5397 5398 5398 5400 5402 5403 5405 5407 5410 5413 5416 5419 5421 5425 5429 5433 5442 5449 5449 5454 5462 5466 5472 5479 5485 5489 5494 5497 5500 5503 5505 5507 5508 5507
5382 5381 5381 5381 5382 5382 5382 5383 5385 5388 5390 5393 5395 5397 5399 5402 5404 5407 5411 5415 5422 5430 5435 5437 5444 5446 5454 5463 5469 5473 5477 5482 5486 5490 5494 5495 5496 5495
5369 5368 5367 5367 5367 5368 5367 5368 5370 5373 5374 5376 5378 5381 5384 5386 5389 5391 5394 5398 5404 5413 5419 5421 5427 5431 5435 5444 5452 5458 5463 5468 5472 5476 5480 5483 5484 5485
5356 5354 5353 5354 5354 5353 5353 5354 5356 5357 5358 5360 5362 5366 5368 5371 5374 5377 5381 5386 5391 5398 5404 5407 5413 5419 5422 5428 5436 5443 5448 5453 5458 5462 5466 5469 5470 5472
5344 5342 5341 5340 5339 5338 5338 5339 5340 5340 5342 5345 5347 5350 5353 5356 5359 5364 5369 5374 5381 5386 5391 5396 5401 5407 5411 5417 5424 5429 5434 5439 5443 5448 5451 5455 5457 5458
5332 5330 5329 5327 5325 5325 5324 5324 5324 5324 5326 5329 5332 5334 5338 5342 5346 5350 5356 5362 5369 5376 5381 5385 5390 5395 5400 5405 5411 5417 5422 5426 5430 5433 5437 5440 5443 5446
5323 5320 5316 5314 5311 5310 5309 5309 5309 5310 5311 5313 5316 5320 5324 5328 5333 5337 5342 5348 5355 5364 5370 5374 5378 5383 5388 5393 5398 5405 5410 5413 5418 5420 5422 5426 5430 5434
5311 5307 5303 5301 5299 5297 5296 5296 5296 5296 5298 5299 5302 5305 5309 5314 5319 5324 5329 5336 5343 5350 5356 5361 5364 5368 5374 5380 5387 5394 5398 5401 5405 5408 5412 5416 5419 5422
5298 5295 5292 5290 5288 5286 5284 5284 5284 5284 5285 5287 5289 5293 5297 5301 5306 5311 5317 5323 5331 5337 5343 5347 5352 5357 5364 5372 5377 5382 5388 5391 5394 5397 5402 5406 5411 5414
5287 5284 5282 5279 5277 5275 5274 5273 5273 5274 5275 5277 5279 5282 5285 5289 5294 5300 5305 5311 5318 5325 5331 5336 5342 5348 5356 5362 5365 5371 5377 5382 5386 5390 5392 5393 5397 5401
5278 5275 5272 5269 5267 5266 5264 5264 5264 5265 5266 5267 5269 5272 5275 5279 5284 5289 5295 5302 5308 5314 5321 5329 5335 5340 5343 5347 5354 5360 5365 5371 5378 5382 5383 5384 5386 5389
5269 5266 5263 5261 5259 5258 5257 5257 5257 5258 5259 5260 5262 5264 5266 5269 5274 5280 5286 5292 5298 5304 5311 5318 5324 5329 5335 5341 5347 5351 5355 5359 5364 5369 5374 5379 5383 5387
5261 5258 5256 5254 5253 5252 5251 5251 5251 5252 5252 5254 5256 5258 5260 5263 5267 5272 5278 5283 5289 5296 5302 5308 5315 5321 5327 5332 5337 5341 5345 5350 5354 5358 5362 5368 5374 5380